Regional Weather Roundup
Issued by NWS

Home | Current Version | Previous Version | Graphics & Text | Print | Product List | Glossary On
Versions: 1 2 3 4 5 6 7 8 9 10 11 12 13 14 15 16 17 18 19 20 21 22 23 24 25 26 27 28 29 30 31 32 33 34 35 36 37 38 39 40 41 42 43 44 45 46 47 48 49 50
000
ASUS45 KSLC 241810
RWRUT

UTAH REGIONAL WEATHER ROUNDUP
NATIONAL WEATHER SERVICE SALT LAKE CITY UT
1200 PM MDT TUE APR 24 2018

UTZ001>011-023>025-241900-

NORTHERN UTAH

CITY           SKY/WX    TMP DP  RH WIND       PRES   REMARKS
BRIGHAM CITY   SUNNY     56  26  30 CALM      30.34S
HILL AFB       NOT AVBL
LOGAN          SUNNY     54  32  43 E21G26    30.35F
OGDEN          SUNNY     56  26  31 N8        30.31S
SALT LAKE CITY MOSUNNY   57  34  41 VRB6      30.30F
TOOELE VALLEY  SUNNY     54  36  50 N7        30.32S
WENDOVER       SUNNY     59  26  28 SE8       30.32F
HEBER CITY       N/A     52  27  37 CALM      30.30F
WEST JORDAN    SUNNY     54  35  48 NW9       30.31F

$$

UTZ011>015-024>027-241900-

CENTRAL/NORTHEAST UTAH

CITY           SKY/WX    TMP DP  RH WIND       PRES   REMARKS
PROVO AIRPORT  SUNNY     56  33  42 W7        30.31S
MOAB/CANYONLAN SUNNY     68  22  17 W10       30.14F
DELTA          SUNNY     57  27  30 CALM      30.28S
PRICE          SUNNY     62   8  12 N9G24     30.23S
ROOSEVELT      MOSUNNY   55  25  30 E10       30.35F
VERNAL         SUNNY     54  24  31 NE18G29   30.34S

$$

UTZ013>016-019>022-027-241900-

SOUTHERN UTAH

CITY           SKY/WX    TMP DP  RH WIND       PRES   REMARKS
BRYCE CANYON   SUNNY     61  27  27 MISG      30.27S
CEDAR CITY     SUNNY     61  27  27 N8        30.23F
MILFORD        SUNNY     60  28  29 MISG      30.26S
ST GEORGE      CLEAR     74  28  18 CALM      30.09F
HANKSVILLE     MOSUNNY   68  14  12 SE5       30.19S
BLANDING         N/A     71  24  17 SW6       30.22F

$$

REGIONAL REPORTS     COLORADO/ARIZONA

CITY           SKY/WX    TMP DP  RH WIND       PRES   REMARKS
CRAIG, CO      MOSUNNY   47  31  53 VRB5      30.34F
GRAND JUNCTION MOSUNNY   63  32  31 NW3       30.18F
RIFLE, CO      PTSUNNY   56  33  42 W16       30.23F
MONTROSE, CO   PTSUNNY   61  32  33 NW12      30.18F
CORTEZ, CO     SUNNY     71  25  17 SW9       30.15F
COLORADO CITY    N/A     72  28  20 W8        30.17F
PAGE, AZ       SUNNY     76  27  16 VRB3      30.10S
GRAND CANYON   SUNNY     69  15  12 VRB6G22   30.23S
KINGMAN, AZ    SUNNY     84  25  11 SW13      30.06S
FLAGSTAFF, AZ  SUNNY     68  21  16 SW15      30.24S

$$

REGIONAL REPORTS    NEVADA/IDAHO/WYOMING

CITY           SKY/WX    TMP DP  RH WIND       PRES   REMARKS
LAS VEGAS, NV  MOSUNNY   82  25  12 NE10      30.04F
ELY, NY        SUNNY     55  21  26 MISG      30.29F
ELKO, NV       SUNNY     58  20  22 N9        30.28F
POCATELLO, ID  MOSUNNY   52  33  48 N10       30.39S
BURLEY, ID     SUNNY     53  26  35 E15       30.36F
EVANSTON, WY   PTSUNNY   42  25  50 E15G25    30.39R
ROCK SPRINGS,  MOSUNNY   42  20  41 E22       30.42F
KEMMERER, WY   PTSUNNY   39  21  48 E9G25     30.42F WCI  33

$$



USA.gov is the U.S. government's official web portal to all federal, state and local government web resources and services.